Wind_Speed
2 1 3 3 3 4 3 5 2 3 3 6 5 4 4 2 6 2 6 8 7 8 8 10 11 11 12 12 13 12 12 12 11 10 11 8 7 7 6 6 7 8 6
8 4 2 1 4 4 3 3 4 2 5 7 10 6 3 3 3 0 6 7 8 9 6 7 9 12 14 15 14 13 13 12 11 13 13 13 12 11 9 9 8 8 8
7 4 5 4 3 1 5 4 0 7 9 7 7 2 4 4 1 5 3 3 5 7 7 7 9 10 12 14 14 13 14 15 12 12 12 13 13 13 11 11 9 9 8
8 5 5 2 2 4 1 3 2 5 5 8 8 11 9 1 1 4 4 5 2 6 12 10 8 7 10 11 12 14 14 14 14 14 14 12 12 12 12 13 12 10 10
9 7 6 4 5 4 2 1 2 4 7 9 11 11 6 3 2 7 5 4 4 4 10 10 5 3 6 9 9 11 12 14 13 14 15 15 14 14 13 13 14 14 13
11 7 8 6 6 5 4 4 3 2 6 7 7 9 3 1 3 6 10 10 8 12 10 9 5 6 7 8 9 10 10 10 11 14 15 14 14 15 16 16 15 15 15
13 11 9 9 5 9 6 7 2 4 5 1 8 7 4 4 6 4 14 11 13 11 13 10 5 6 8 2 3 6 8 9 10 12 13 14 15 17 18 18 17 17 17
13 11 12 9 8 8 10 8 1 5 6 2 4 2 3 2 3 10 5 7 7 12 9 5 4 7 7 4 2 1 4 6 7 6 6 11 15 15 16 17 18 19 19
15 14 12 11 12 11 12 7 6 3 3 2 3 4 2 0 2 7 8 7 8 8 7 6 9 8 6 2 3 4 2 2 5 7 8 9 10 13 16 17 17 19 21
19 17 14 15 12 10 16 12 10 7 4 4 3 4 5 3 2 2 4 6 7 7 6 6 7 9 5 1 2 4 5 5 4 3 3 4 7 9 12 14 14 15 17
22 17 16 17 15 12 14 14 11 8 8 3 4 5 3 2 2 3 2 0 7 10 11 10 9 9 7 5 3 1 3 5 7 8 5 5 5 7 8 8 10 12 15
23 19 17 19 17 15 16 12 9 10 12 7 3 4 6 2 3 3 2 1 1 13 15 13 12 9 10 8 6 5 3 4 9 8 8 8 8 8 8 8 8 9 9
23 20 23 22 21 17 14 12 11 10 11 10 10 6 1 5 4 3 4 1 0 2 4 18 18 13 13 12 9 7 6 5 6 9 13 13 13 13 13 12 11 10 10
23 26 24 23 23 21 17 16 14 13 11 11 10 11 8 3 5 3 1 3 2 3 5 10 3 14 14 12 10 10 8 8 10 12 15 17 16 14 15 16 16 16 15
26 28 30 29 28 24 22 21 18 16 16 14 11 10 8 9 3 1 0 3 4 1 2 2 3 9 6 9 8 9 12 12 12 13 18 14 15 17 17 17 17 19 20
23 30 36 34 31 27 25 25 22 20 18 19 17 14 11 10 8 6 3 5 4 5 2 4 10 7 5 6 8 10 12 14 17 20 20 19 19 19 21 23 23 22 21
24 25 38 37 33 29 28 28 26 22 24 22 20 18 16 17 14 11 5 3 4 5 6 11 13 12 8 13 13 13 16 18 19 21 20 21 20 21 25 26 25 24 24
33 30 35 37 35 33 31 31 29 26 26 26 24 21 18 16 15 13 11 8 7 6 7 10 13 14 15 15 17 22 18 18 16 18 19 23 26 26 26 27 30 30 28
41 35 37 39 38 36 35 34 33 30 27 29 27 25 22 18 18 16 15 13 11 11 9 8 10 12 14 14 16 15 9 10 14 20 22 19 21 22 23 19 21 26 32
42 41 41 41 40 38 36 36 33 33 31 27 27 28 25 23 22 20 19 17 17 15 12 11 13 14 14 12 8 9 20 19 17 16 13 14 16 22 21 19 20 21 21
43 44 41 40 38 37 37 35 35 32 32 30 28 31 27 24 23 23 22 20 17 17 15 14 17 18 18 16 12 13 12 16 18 20 19 23 24 23 27 30 33 32 27
37 36 39 39 36 33 29 33 35 33 32 31 31 29 28 25 26 25 24 22 20 20 17 15 18 19 21 17 15 15 12 14 5 17 11 25 29 26 22 24 22 21 20
32 34 34 33 32 31 31 33 34 31 31 32 33 33 27 29 26 27 25 21 20 19 17 17 19 21 19 19 20 20 20 20 19 27 25 22 24 24 24 26 24 23 23
31 30 29 32 31 29 29 29 29 32 32 32 34 31 31 30 29 26 23 21 22 20 17 18 20 22 21 23 21 22 24 22 26 28 24 15 25 24 25 20 20 26 30
27 28 30 27 28 29 31 30 26 30 34 32 29 28 29 30 26 22 23 23 21 21 16 18 19 19 17 19 20 21 23 23 16 22 21 17 22 21 22 27 27 25 25
29 27 28 28 27 28 26 28 30 27 34 32 31 30 27 22 20 22 25 23 19 19 15 14 14 13 13 18 22 22 26 22 17 10 14 16 24 24 14 20 19 26 31
Wind_Direction
291 183 123 65 348 24 42 343 112 1 335 334 346 354 18 89 143 23 163 177 184 194 201 194 193 196 197 200 196 193 194 195 196 191 198 208 213 205 219 226 231 231 244
160 188 148 329 17 321 327 348 321 307 331 343 323 300 337 18 210 244 141 189 187 204 196 201 209 214 205 202 205 210 210 203 200 202 207 211 216 224 224 233 237 241 250
214 230 240 274 350 26 264 289 322 333 352 8 3 245 276 351 243 180 159 220 226 235 211 212 216 218 219 214 213 213 219 220 215 209 210 215 218 226 233 235 248 245 245
198 242 286 224 315 302 327 317 323 342 11 344 332 339 266 104 295 256 250 233 207 213 216 210 208 222 224 226 222 223 226 226 229 228 224 218 220 226 233 237 243 247 254
213 229 222 259 262 273 215 143 148 18 20 16 336 348 96 88 21 65 184 111 110 104 209 200 200 251 236 231 232 234 230 229 230 233 235 237 235 237 239 242 243 247 249
195 216 226 235 256 257 188 192 179 3 341 327 332 343 331 329 134 82 97 102 84 95 103 161 212 248 224 217 233 245 241 235 233 239 244 241 240 242 241 243 247 251 252
202 204 229 234 249 226 247 155 123 318 351 299 351 340 295 252 142 111 119 114 96 106 106 115 96 101 164 172 218 220 230 236 241 239 239 242 246 246 247 244 245 249 251
215 206 222 220 223 211 176 162 84 55 34 30 22 41 3 287 147 136 134 100 73 126 115 82 54 114 136 140 107 155 207 210 220 227 256 244 246 252 257 258 257 258 256
213 204 203 202 189 207 173 169 158 137 88 344 52 97 48 244 335 135 146 135 134 132 134 80 82 123 126 66 96 44 59 181 224 244 255 255 246 248 253 257 255 258 260
199 201 200 194 198 177 177 170 175 158 141 110 340 141 109 107 129 31 174 175 179 184 175 157 119 137 145 117 52 55 55 47 37 356 307 276 267 262 261 263 258 259 261
191 193 196 193 178 166 181 178 178 185 179 158 77 151 154 182 154 131 228 268 202 203 198 188 175 169 168 183 171 322 6 19 14 351 337 331 317 301 289 284 277 267 260
185 190 189 182 190 192 184 192 210 194 189 182 166 106 65 329 175 142 119 284 266 209 212 200 200 193 194 201 210 217 260 341 344 343 321 311 308 303 296 292 289 285 279
188 189 187 190 196 197 204 216 211 205 204 208 192 188 133 22 41 128 120 145 24 11 207 230 217 208 203 209 218 239 238 285 314 321 317 306 303 298 292 287 286 290 293
196 192 194 196 200 204 206 214 211 211 203 207 213 211 213 206 15 54 200 182 0 342 341 34 207 232 212 212 243 246 245 277 299 312 323 309 301 295 289 285 284 279 277
206 200 198 198 204 207 208 210 211 210 208 209 207 211 216 207 245 328 159 196 173 189 299 335 345 2 221 220 248 269 268 273 288 309 312 299 296 294 289 287 287 283 283
216 206 202 203 205 209 207 209 215 210 212 211 212 215 216 204 232 237 318 254 216 188 201 267 314 325 274 276 291 279 274 274 294 300 299 291 288 292 289 286 284 283 284
218 213 204 204 206 207 205 210 213 212 211 213 216 221 227 220 230 221 213 228 234 249 223 279 299 312 278 302 302 291 289 286 289 295 291 289 288 290 296 292 289 288 283
218 211 203 207 207 210 209 210 212 215 214 214 212 214 214 213 232 227 228 239 237 246 259 252 281 295 300 293 290 295 287 283 288 288 291 288 285 289 288 296 279 282 281
221 213 210 209 211 211 210 213 216 216 218 226 221 220 222 217 213 222 226 233 236 244 249 264 277 276 282 302 316 297 290 298 290 292 295 296 298 299 302 300 295 290 285
216 216 216 215 215 211 211 213 216 219 220 224 226 223 225 225 218 217 224 230 237 248 253 266 271 277 283 282 290 293 313 312 310 309 309 306 299 302 301 299 294 295 296
213 216 215 214 214 213 214 214 220 222 222 225 228 230 231 230 227 227 230 233 236 246 242 254 271 271 267 274 280 305 298 305 298 300 300 301 299 298 294 292 292 287 282
212 212 212 213 212 213 208 217 222 223 223 223 226 230 231 232 233 234 235 238 238 232 243 263 276 275 282 287 294 293 288 291 280 305 289 295 294 298 301 310 309 303 296
207 207 206 210 213 216 212 218 222 226 227 230 231 234 232 233 235 235 235 234 242 241 252 268 272 275 271 288 292 289 293 290 281 302 305 294 303 297 306 311 315 309 299
199 195 196 209 214 216 212 216 221 220 227 235 237 235 238 236 237 242 244 243 247 252 260 276 279 275 275 288 282 287 288 283 287 294 293 275 295 293 306 311 311 306 299
185 191 200 202 210 214 211 212 217 228 228 231 236 240 248 245 242 240 249 255 258 263 275 292 289 280 286 292 291 284 272 276 280 283 294 276 298 302 305 305 307 304 296
183 188 199 207 212 213 213 219 221 225 224 237 242 246 253 253 251 247 256 254 253 267 286 289 276 273 283 292 296 283 282 273 273 298 306 289 297 299 306 300 304 294 297
Height
843 845 846 846 847 846 847 848 847 848 848 849 850 850 849 847 845 845 846 849 852 854 854 853 854 856 857 859 859 859 862 863 865 867 869 872 873 874 875 877 878 878 879
841 843 844 845 845 844 846 847 848 847 848 849 848 848 848 847 846 846 847 848 849 852 853 852 854 854 855 857 858 859 861 861 862 864 866 869 871 872 874 875 876 877 878
840 841 843 844 845 845 846 846 846 846 846 846 847 847 846 847 847 846 846 846 848 850 850 851 852 853 854 856 855 857 860 861 861 862 864 866 868 870 871 873 875 876 876
838 840 841 842 843 845 845 845 846 846 845 846 846 846 846 846 846 846 846 847 847 847 848 850 851 853 854 854 855 856 857 858 859 861 862 863 865 867 868 870 872 873 874
837 839 840 841 841 843 844 844 845 845 844 844 844 845 844 845 845 844 845 846 845 845 846 850 853 853 853 854 855 855 857 856 857 859 861 862 863 864 866 867 868 869 870
835 837 838 840 840 842 842 843 843 843 843 842 842 842 841 842 843 844 844 846 847 845 846 848 851 850 851 852 853 854 855 855 855 858 859 860 860 861 862 863 865 866 867
832 834 836 837 838 839 841 841 842 842 841 841 840 840 838 841 841 843 844 845 846 846 846 848 849 848 850 852 853 852 852 854 855 856 856 856 858 858 859 860 861 862 863
830 831 832 834 835 837 838 839 840 841 841 841 840 841 843 842 841 843 843 844 845 846 847 848 848 848 850 851 851 851 851 852 854 855 855 855 855 857 857 858 859 860 860
827 829 830 831 833 835 837 838 838 839 840 841 841 841 846 848 843 843 843 844 845 846 847 847 848 848 850 851 851 851 851 851 852 852 852 853 853 853 854 854 855 856 857
824 826 828 830 832 833 835 836 837 837 838 838 840 841 841 842 845 848 845 844 845 846 846 847 848 848 848 849 850 850 851 852 852 852 851 851 851 851 851 851 851 851 852
820 823 825 829 831 833 834 835 835 835 837 837 839 839 840 841 842 844 848 846 846 845 846 845 846 846 847 849 850 850 851 851 852 852 852 851 850 850 849 849 849 848 849
817 820 822 827 830 832 833 834 834 835 835 837 839 839 840 841 841 842 845 844 844 844 845 845 844 844 845 846 848 849 849 850 850 850 850 850 849 849 848 847 847 847 846
814 817 820 823 826 829 831 832 834 835 836 836 835 837 839 840 840 840 840 842 843 842 843 844 843 843 843 843 844 846 847 847 847 848 848 848 847 846 846 845 845 845 844
809 813 817 821 824 826 828 830 831 833 833 835 836 836 837 838 840 840 840 841 843 841 841 841 843 843 843 843 844 844 845 845 845 845 845 844 844 843 842 842 841 841 841
804 809 812 815 818 821 824 826 829 830 832 833 834 835 835 836 838 838 839 839 840 845 843 841 843 843 842 843 843 843 843 842 841 841 841 841 840 839 839 838 838 837 837
800 803 805 809 812 816 819 822 825 827 829 831 833 833 834 834 835 837 838 838 838 838 842 839 840 841 842 842 841 840 839 839 838 837 837 836 835 835 834 834 833 833 833
794 796 799 804 807 811 814 817 821 823 824 827 829 831 831 832 833 835 836 837 837 838 838 837 837 838 839 838 837 836 835 834 834 833 833 832 830 830 829 829 828 827 827
787 790 794 798 801 804 808 812 816 819 822 822 824 827 828 829 830 831 833 834 835 835 835 834 833 833 833 833 832 831 831 829 828 828 828 827 825 824 823 822 821 821 821
780 783 786 789 792 796 802 806 810 814 816 818 820 822 824 825 825 827 828 829 831 831 832 832 831 830 828 829 828 826 826 826 825 824 822 821 820 819 818 817 816 814 814
773 775 777 781 785 790 795 799 804 809 812 814 817 818 819 821 821 822 823 825 826 827 828 828 828 827 826 824 823 823 822 821 820 818 817 816 816 814 813 811 811 809 807
765 768 772 777 781 786 790 795 800 804 807 809 811 814 814 815 816 817 818 819 820 822 823 823 822 821 820 819 818 818 817 816 815 814 812 811 809 809 808 807 805 803 801
759 762 766 771 777 783 788 792 795 798 801 803 806 808 809 811 813 813 813 815 816 816 818 819 819 818 816 816 815 814 812 811 810 809 808 808 806 803 801 798 796 795 793
753 757 763 770 775 780 783 786 790 794 797 799 800 802 805 805 806 808 811 811 812 813 814 814 813 811 811 810 811 809 807 805 803 801 801 799 798 796 794 791 789 788 787
748 753 760 765 770 773 779 784 787 789 792 794 795 796 799 802 803 805 808 809 808 808 809 809 808 806 806 806 805 804 803 801 799 797 797 795 791 790 788 786 783 784 783
743 749 754 760 764 767 773 776 781 784 785 787 790 793 795 797 799 801 803 803 804 804 805 805 803 802 801 801 800 799 798 797 794 791 791 790 787 783 780 778 777 776 774
736 744 750 753 760 766 769 770 774 774 776 783 787 788 790 792 794 797 797 798 799 799 800 800 800 798 797 796 796 795 793 791 791 789 786 784 780 778 772 771 770 770 767